| time (UTC) | temp F | wind direction | speed MPH | gust MPH | rain 1hr in | rain 24hr in | rain mn in | humidity % | barometer mb |
| 20260906120106 | 48 | 211 | 0.0 | 0.0 | 0.00 | 0.00 | 0.00 | 99 | 1031.0 |
| 20260906115601 | 49 | 203 | 0.0 | 0.0 | 0.00 | 0.00 | 0.00 | 99 | 1031.2 |
| 20260906115056 | 49 | 190 | 0.0 | 0.0 | 0.00 | 0.00 | 0.00 | 99 | 1031.2 |
| 20260906114555 | 49 | 184 | 0.0 | 0.0 | 0.00 | 0.00 | 0.00 | 99 | 1031.3 |
| 20260906114051 | 48 | 204 | 0.0 | 0.0 | 0.00 | 0.00 | 0.00 | 99 | 1031.2 |
| 20260906113550 | 49 | 216 | 0.0 | 0.0 | 0.00 | 0.00 | 0.00 | 99 | 1031.0 |
| 20260906113045 | 49 | 212 | 0.0 | 0.0 | 0.00 | 0.00 | 0.00 | 99 | 1031.2 |
| 20260906112540 | 49 | 215 | 0.0 | 0.0 | 0.00 | 0.00 | 0.00 | 99 | 1031.2 |
| 20260906112037 | 49 | 201 | 0.0 | 0.0 | 0.00 | 0.00 | 0.00 | 99 | 1031.2 |
| 20260906111536 | 49 | 188 | 0.0 | 0.0 | 0.00 | 0.00 | 0.00 | 99 | 1031.0 |
| 20260906111032 | 49 | 204 | 0.0 | 0.0 | 0.00 | 0.00 | 0.00 | 99 | 1031.2 |
| 20260906110531 | 49 | 212 | 0.0 | 0.0 | 0.00 | 0.00 | 0.00 | 99 | 1031.0 |
| 20260906110031 | 49 | 208 | 0.0 | 0.0 | 0.00 | 0.00 | 0.00 | 99 | 1030.8 |
| 20260906105526 | 49 | 211 | 0.0 | 0.0 | 0.00 | 0.00 | 0.00 | 99 | 1030.9 |
| 20260906105022 | 49 | 205 | 0.0 | 0.0 | 0.00 | 0.00 | 0.00 | 99 | 1030.8 |
| 20260906104520 | 49 | 184 | 0.0 | 0.0 | 0.00 | 0.00 | 0.00 | 99 | 1030.9 |
| 20260906104015 | 49 | 213 | 0.0 | 0.0 | 0.00 | 0.00 | 0.00 | 99 | 1030.9 |
| 20260906103513 | 49 | 197 | 0.0 | 0.0 | 0.00 | 0.00 | 0.00 | 99 | 1031.3 |
| 20260906103009 | 49 | 206 | 0.0 | 0.0 | 0.00 | 0.00 | 0.00 | 99 | 1030.7 |
| 20260906102509 | 49 | 197 | 0.0 | 0.0 | 0.00 | 0.00 | 0.00 | 99 | 1030.9 |
| 20260906102009 | 49 | 199 | 0.0 | 0.0 | 0.00 | 0.00 | 0.00 | 99 | 1030.9 |
| 20260906101504 | 49 | 214 | 0.0 | 0.0 | 0.00 | 0.00 | 0.00 | 99 | 1030.9 |
| 20260906100958 | 50 | 197 | 0.0 | 0.0 | 0.00 | 0.00 | 0.00 | 99 | 1031.0 |
| 20260906100454 | 49 | 185 | 0.0 | 0.0 | 0.00 | 0.00 | 0.00 | 99 | 1030.9 |
| 20260906095948 | 49 | 196 | 0.0 | 0.0 | 0.00 | 0.00 | 0.00 | 99 | 1030.9 |
| 20260906095444 | 50 | 210 | 0.0 | 0.0 | 0.00 | 0.00 | 0.00 | 99 | 1031.0 |
| 20260906094938 | 50 | 192 | 0.0 | 0.0 | 0.00 | 0.00 | 0.00 | 99 | 1030.9 |
| 20260906094431 | 50 | 208 | 0.0 | 0.0 | 0.00 | 0.00 | 0.00 | 99 | 1031.2 |
| 20260906093923 | 50 | 208 | 0.0 | 0.0 | 0.00 | 0.00 | 0.00 | 99 | 1031.0 |
| 20260906093419 | 50 | 200 | 0.0 | 0.0 | 0.00 | 0.00 | 0.00 | 99 | 1031.0 |
| 20260906092919 | 50 | 209 | 0.0 | 0.0 | 0.00 | 0.00 | 0.00 | 99 | 1031.2 |
| 20260906092418 | 50 | 215 | 0.0 | 0.0 | 0.00 | 0.00 | 0.00 | 99 | 1031.2 |
| 20260906091914 | 50 | 208 | 0.0 | 0.0 | 0.00 | 0.00 | 0.00 | 99 | 1031.2 |
| 20260906091410 | 50 | 205 | 0.0 | 0.0 | 0.00 | 0.00 | 0.00 | 99 | 1031.2 |
| 20260906090906 | 50 | 211 | 0.0 | 0.0 | 0.00 | 0.00 | 0.00 | 99 | 1030.8 |
| 20260906090406 | 50 | 208 | 0.0 | 0.0 | 0.00 | 0.00 | 0.00 | 99 | 1031.0 |
| 20260906085901 | 50 | 183 | 0.0 | 0.0 | 0.00 | 0.00 | 0.00 | 99 | 1030.9 |
| 20260906085400 | 50 | 217 | 0.0 | 0.0 | 0.00 | 0.00 | 0.00 | 99 | 1031.2 |
| 20260906084859 | 50 | 196 | 1.0 | 1.0 | 0.00 | 0.00 | 0.00 | 99 | 1030.9 |
| 20260906084354 | 50 | 209 | 0.0 | 0.0 | 0.00 | 0.00 | 0.00 | 99 | 1031.0 |
| 20260906083848 | 50 | 191 | 0.0 | 0.0 | 0.00 | 0.00 | 0.00 | 99 | 1030.9 |
| 20260906083344 | 51 | 206 | 0.0 | 0.0 | 0.00 | 0.00 | 0.00 | 99 | 1031.2 |
| 20260906082843 | 51 | 178 | 0.0 | 0.0 | 0.00 | 0.00 | 0.00 | 99 | 1030.9 |
| 20260906082338 | 51 | 195 | 0.0 | 0.0 | 0.00 | 0.00 | 0.00 | 99 | 1030.9 |
| 20260906081835 | 51 | 180 | 1.0 | 1.0 | 0.00 | 0.00 | 0.00 | 99 | 1031.2 |
| 20260906081330 | 51 | 128 | 0.0 | 0.0 | 0.00 | 0.00 | 0.00 | 99 | 1031.2 |
| 20260906080826 | 51 | 92 | 0.0 | 0.0 | 0.00 | 0.00 | 0.00 | 99 | 1030.9 |
| 20260906080322 | 51 | 201 | 0.0 | 0.0 | 0.00 | 0.00 | 0.00 | 99 | 1031.3 |
| 20260906075821 | 51 | 214 | 0.0 | 0.0 | 0.00 | 0.00 | 0.00 | 99 | 1031.2 |
| 20260906075316 | 51 | 209 | 0.0 | 0.0 | 0.00 | 0.00 | 0.00 | 99 | 1031.0 |
| 20260906074811 | 51 | 199 | 0.0 | 0.0 | 0.00 | 0.00 | 0.00 | 99 | 1031.3 |
| 20260906074311 | 51 | 200 | 0.0 | 0.0 | 0.00 | 0.00 | 0.00 | 99 | 1031.4 |
| 20260906073810 | 51 | 189 | 0.0 | 0.0 | 0.00 | 0.00 | 0.00 | 99 | 1031.5 |
| 20260906073305 | 51 | 166 | 0.0 | 0.0 | 0.00 | 0.00 | 0.00 | 99 | 1031.2 |
| 20260906072801 | 51 | 216 | 0.0 | 0.0 | 0.00 | 0.00 | 0.00 | 99 | 1031.4 |
| 20260906072257 | 51 | 207 | 0.0 | 0.0 | 0.00 | 0.00 | 0.00 | 99 | 1031.5 |
| 20260906071752 | 51 | 186 | 0.0 | 0.0 | 0.00 | 0.00 | 0.00 | 99 | 1031.5 |
| 20260906071252 | 51 | 199 | 0.0 | 0.0 | 0.00 | 0.00 | 0.00 | 99 | 1031.5 |
| 20260906070743 | 51 | 183 | 0.0 | 0.0 | 0.00 | 0.00 | 0.00 | 99 | 1031.5 |
| 20260906070238 | 52 | 204 | 0.0 | 0.0 | 0.00 | 0.00 | 0.00 | 99 | 1031.5 |
| 20260906065738 | 52 | 190 | 0.0 | 0.0 | 0.00 | 0.00 | 0.00 | 99 | 1031.5 |
| 20260906065233 | 52 | 165 | 0.0 | 0.0 | 0.00 | 0.00 | 0.00 | 99 | 1031.4 |
| 20260906064729 | 52 | 193 | 0.0 | 0.0 | 0.00 | 0.00 | 0.00 | 99 | 1031.5 |
| 20260906064224 | 52 | 192 | 0.0 | 0.0 | 0.00 | 0.00 | 0.00 | 99 | 1031.3 |
| 20260906063719 | 52 | 214 | 0.0 | 0.0 | 0.00 | 0.00 | 0.00 | 99 | 1031.7 |
| 20260906063215 | 52 | 197 | 0.0 | 0.0 | 0.00 | 0.00 | 0.00 | 99 | 1031.7 |
| 20260906062711 | 53 | 214 | 0.0 | 0.0 | 0.00 | 0.00 | 0.00 | 99 | 1031.8 |
| 20260906062210 | 53 | 196 | 0.0 | 0.0 | 0.00 | 0.00 | 0.00 | 99 | 1031.7 |
| 20260906061705 | 53 | 217 | 0.0 | 0.0 | 0.00 | 0.00 | 0.00 | 99 | 1031.7 |
| 20260906061201 | 53 | 219 | 0.0 | 0.0 | 0.00 | 0.00 | 0.00 | 99 | 1031.9 |
| 20260906060657 | 53 | 185 | 0.0 | 0.0 | 0.00 | 0.00 | 0.00 | 99 | 1031.8 |
| 20260906060154 | 53 | 205 | 0.0 | 0.0 | 0.00 | 0.00 | 0.00 | 99 | 1032.1 |
| 20260906055649 | 54 | 125 | 0.0 | 0.0 | 0.00 | 0.21 | 0.21 | 99 | 1031.8 |
| 20260906055144 | 54 | 209 | 0.0 | 0.0 | 0.00 | 0.21 | 0.21 | 99 | 1031.8 |
| 20260906054640 | 54 | 193 | 1.0 | 1.0 | 0.00 | 0.21 | 0.21 | 99 | 1031.9 |
| 20260906054134 | 54 | 201 | 1.0 | 1.0 | 0.00 | 0.21 | 0.21 | 99 | 1032.1 |
| 20260906053631 | 54 | 186 | 0.0 | 0.0 | 0.00 | 0.21 | 0.21 | 99 | 1032.1 |
| 20260906053126 | 54 | 183 | 1.0 | 2.0 | 0.00 | 0.21 | 0.21 | 99 | 1031.9 |
| 20260906052621 | 55 | 201 | 0.0 | 0.0 | 0.00 | 0.21 | 0.21 | 99 | 1031.9 |
| 20260906052118 | 55 | 219 | 0.0 | 0.0 | 0.00 | 0.21 | 0.21 | 99 | 1032.2 |
| 20260906051614 | 55 | 221 | 0.0 | 0.0 | 0.00 | 0.21 | 0.21 | 99 | 1032.3 |
| 20260906051109 | 55 | 133 | 4.0 | 5.0 | 0.00 | 0.21 | 0.21 | 99 | 1032.4 |
| 20260906050604 | 55 | 168 | 0.0 | 0.0 | 0.00 | 0.21 | 0.21 | 99 | 1032.2 |
| 20260906050059 | 55 | 175 | 0.0 | 0.0 | 0.00 | 0.21 | 0.21 | 99 | 1032.4 |
| 20260906045557 | 55 | 209 | 0.0 | 0.0 | 0.00 | 0.21 | 0.21 | 99 | 1032.7 |
| 20260906045053 | 56 | 208 | 1.0 | 2.0 | 0.00 | 0.21 | 0.21 | 99 | 1032.4 |
| 20260906044549 | 56 | 118 | 2.0 | 2.0 | 0.00 | 0.21 | 0.21 | 99 | 1032.4 |
| 20260906044044 | 56 | 220 | 2.0 | 2.0 | 0.00 | 0.21 | 0.21 | 99 | 1032.4 |
| 20260906043540 | 56 | 223 | 0.0 | 0.0 | 0.00 | 0.21 | 0.21 | 99 | 1032.3 |
| 20260906043036 | 56 | 215 | 0.0 | 0.0 | 0.05 | 0.21 | 0.21 | 99 | 1032.4 |
| 20260906042534 | 57 | 181 | 1.0 | 1.0 | 0.12 | 0.21 | 0.21 | 98 | 1032.3 |
| 20260906042029 | 57 | 221 | 0.0 | 0.0 | 0.54 | 0.20 | 0.20 | 97 | 1032.7 |
| 20260906041525 | 57 | 247 | 3.0 | 3.0 | 1.13 | 0.19 | 0.19 | 95 | 1032.4 |
| 20260906041025 | 60 | 241 | 4.0 | 5.0 | 0.59 | 0.10 | 0.10 | 89 | 1032.6 |
| 20260906040520 | 68 | 259 | 8.0 | 9.0 | 0.00 | 0.00 | 0.00 | 63 | 1031.8 |
| 20260906040016 | 68 | 282 | 5.0 | 6.0 | 0.00 | 0.00 | 0.00 | 51 | 1031.5 |
| 20260906035510 | 68 | 303 | 5.0 | 7.0 | 0.00 | 0.00 | 0.00 | 50 | 1031.3 |
| 20260906035006 | 68 | 213 | 3.0 | 3.0 | 0.00 | 0.00 | 0.00 | 50 | 1031.4 |
| 20260906034500 | 67 | 264 | 2.0 | 2.0 | 0.00 | 0.00 | 0.00 | 49 | 1031.2 |
| 20260906033955 | 65 | 240 | 4.0 | 5.0 | 0.00 | 0.00 | 0.00 | 50 | 1031.2 |
| 20260906033450 | 64 | 259 | 1.0 | 3.0 | 0.00 | 0.00 | 0.00 | 51 | 1031.2 |
| 20260906032946 | 63 | 153 | 2.0 | 3.0 | 0.00 | 0.00 | 0.00 | 52 | 1031.0 |
| 20260906032443 | 63 | 202 | 0.0 | 0.0 | 0.00 | 0.00 | 0.00 | 52 | 1030.9 |
| 20260906031942 | 63 | 207 | 0.0 | 0.0 | 0.00 | 0.00 | 0.00 | 52 | 1031.0 |
| 20260906031438 | 63 | 207 | 0.0 | 0.0 | 0.00 | 0.00 | 0.00 | 52 | 1031.2 |
| 20260906030933 | 63 | 227 | 0.0 | 1.0 | 0.00 | 0.00 | 0.00 | 52 | 1031.2 |
| 20260906030428 | 63 | 187 | 1.0 | 1.0 | 0.00 | 0.00 | 0.00 | 52 | 1030.9 |
| 20260906025922 | 64 | 217 | 0.0 | 0.0 | 0.00 | 0.00 | 0.00 | 51 | 1031.0 |
| 20260906025417 | 64 | 221 | 0.0 | 0.0 | 0.00 | 0.00 | 0.00 | 52 | 1030.7 |
| 20260906024915 | 63 | 221 | 0.0 | 0.0 | 0.00 | 0.00 | 0.00 | 51 | 1030.7 |
| 20260906024414 | 63 | 197 | 0.0 | 0.0 | 0.00 | 0.00 | 0.00 | 51 | 1030.5 |
| 20260906023905 | 64 | 219 | 0.0 | 0.0 | 0.00 | 0.00 | 0.00 | 51 | 1030.4 |
| 20260906023401 | 64 | 214 | 0.0 | 0.0 | 0.00 | 0.00 | 0.00 | 50 | 1030.5 |
| 20260906022900 | 64 | 208 | 0.0 | 0.0 | 0.00 | 0.00 | 0.00 | 50 | 1030.3 |
| 20260906022355 | 65 | 215 | 0.0 | 0.0 | 0.00 | 0.00 | 0.00 | 50 | 1030.3 |
| 20260906021851 | 65 | 191 | 0.0 | 0.0 | 0.00 | 0.00 | 0.00 | 49 | 1030.4 |
| 20260906021350 | 65 | 184 | 1.0 | 1.0 | 0.00 | 0.00 | 0.00 | 49 | 1030.4 |
| 20260906020845 | 65 | 214 | 0.0 | 0.0 | 0.00 | 0.00 | 0.00 | 49 | 1030.2 |
| 20260906020345 | 66 | 177 | 2.0 | 2.0 | 0.00 | 0.00 | 0.00 | 47 | 1030.0 |
| 20260906015839 | 66 | 196 | 0.0 | 0.0 | 0.00 | 0.00 | 0.00 | 48 | 1030.0 |
| 20260906015339 | 66 | 212 | 0.0 | 0.0 | 0.00 | 0.00 | 0.00 | 47 | 1029.9 |
| 20260906014839 | 66 | 206 | 0.0 | 0.0 | 0.00 | 0.00 | 0.00 | 48 | 1029.9 |
| 20260906014333 | 67 | 201 | 1.0 | 1.0 | 0.00 | 0.00 | 0.00 | 46 | 1029.9 |
| 20260906013830 | 68 | 195 | 0.0 | 0.0 | 0.00 | 0.00 | 0.00 | 45 | 1029.9 |
| 20260906013325 | 69 | 205 | 0.0 | 0.0 | 0.00 | 0.00 | 0.00 | 45 | 1029.9 |
| 20260906012820 | 69 | 224 | 0.0 | 0.0 | 0.00 | 0.00 | 0.00 | 44 | 1029.8 |
| 20260906012315 | 71 | 219 | 0.0 | 0.0 | 0.00 | 0.00 | 0.00 | 42 | 1029.9 |
| 20260906011810 | 72 | 218 | 0.0 | 0.0 | 0.00 | 0.00 | 0.00 | 41 | 1029.9 |
| 20260906011310 | 73 | 215 | 0.0 | 0.0 | 0.00 | 0.00 | 0.00 | 40 | 1029.9 |
| 20260906010806 | 74 | 216 | 0.0 | 0.0 | 0.00 | 0.00 | 0.00 | 39 | 1029.9 |
| 20260906010302 | 74 | 210 | 0.0 | 0.0 | 0.00 | 0.00 | 0.00 | 39 | 1029.7 |
| 20260906005757 | 75 | 208 | 0.0 | 0.0 | 0.00 | 0.00 | 0.00 | 38 | 1029.7 |
| 20260906005256 | 75 | 214 | 0.0 | 0.0 | 0.00 | 0.00 | 0.00 | 37 | 1029.9 |
| 20260906004755 | 75 | 77 | 1.0 | 2.0 | 0.00 | 0.00 | 0.00 | 37 | 1029.8 |
| 20260906004250 | 76 | 210 | 0.0 | 0.0 | 0.00 | 0.00 | 0.00 | 37 | 1029.8 |
| 20260906003749 | 76 | 215 | 0.0 | 0.0 | 0.00 | 0.00 | 0.00 | 37 | 1029.7 |
| 20260906003245 | 77 | 139 | 1.0 | 2.0 | 0.00 | 0.00 | 0.00 | 37 | 1029.8 |
| 20260906002740 | 77 | 217 | 1.0 | 1.0 | 0.00 | 0.00 | 0.00 | 36 | 1029.7 |
| 20260906002240 | 77 | 129 | 0.0 | 1.0 | 0.00 | 0.00 | 0.00 | 36 | 1029.7 |
| 20260906001736 | 77 | 164 | 1.0 | 2.0 | 0.00 | 0.00 | 0.00 | 36 | 1029.7 |
| 20260906001231 | 78 | 82 | 2.0 | 2.0 | 0.00 | 0.00 | 0.00 | 36 | 1029.7 |
| 20260906000726 | 78 | 33 | 1.0 | 2.0 | 0.00 | 0.00 | 0.00 | 35 | 1029.5 |
| 20260906000226 | 79 | 188 | 1.0 | 2.0 | 0.00 | 0.00 | 0.00 | 35 | 1029.5 |
| 20260905235721 | 79 | 179 | 3.0 | 5.0 | 0.00 | 0.00 | 0.00 | 34 | 1029.7 |
| 20260905235216 | 79 | 162 | 2.0 | 2.0 | 0.00 | 0.00 | 0.00 | 34 | 1029.8 |
| 20260905234711 | 80 | 146 | 3.0 | 3.0 | 0.00 | 0.00 | 0.00 | 34 | 1029.4 |
| 20260905234206 | 80 | 36 | 2.0 | 2.0 | 0.00 | 0.00 | 0.00 | 34 | 1029.4 |
| 20260905233702 | 81 | 163 | 1.0 | 2.0 | 0.00 | 0.00 | 0.00 | 33 | 1029.5 |
| 20260905233201 | 81 | 184 | 7.0 | 9.0 | 0.00 | 0.00 | 0.00 | 33 | 1029.3 |
| 20260905232656 | 82 | 196 | 2.0 | 2.0 | 0.00 | 0.00 | 0.00 | 33 | 1029.7 |
| 20260905232152 | 82 | 233 | 3.0 | 5.0 | 0.00 | 0.00 | 0.00 | 33 | 1029.3 |
| 20260905231648 | 81 | 227 | 1.0 | 1.0 | 0.00 | 0.00 | 0.00 | 33 | 1029.5 |
| 20260905231143 | 81 | 221 | 1.0 | 2.0 | 0.00 | 0.00 | 0.00 | 33 | 1029.4 |
| 20260905230639 | 81 | 170 | 1.0 | 2.0 | 0.00 | 0.00 | 0.00 | 33 | 1029.3 |
| 20260905230136 | 82 | 42 | 2.0 | 2.0 | 0.00 | 0.00 | 0.00 | 33 | 1029.3 |
| 20260905225631 | 81 | 194 | 0.0 | 0.0 | 0.00 | 0.00 | 0.00 | 33 | 1029.4 |
| 20260905225126 | 82 | 257 | 3.0 | 3.0 | 0.00 | 0.00 | 0.00 | 33 | 1029.4 |
| 20260905224625 | 81 | 223 | 0.0 | 0.0 | 0.00 | 0.00 | 0.00 | 32 | 1029.4 |
| 20260905224125 | 82 | 179 | 0.0 | 0.0 | 0.00 | 0.00 | 0.00 | 33 | 1029.4 |
| 20260905223622 | 82 | 210 | 0.0 | 0.0 | 0.00 | 0.00 | 0.00 | 32 | 1029.1 |
| 20260905223118 | 83 | 216 | 0.0 | 1.0 | 0.00 | 0.00 | 0.00 | 32 | 1029.3 |
| 20260905222619 | 83 | 243 | 0.0 | 0.0 | 0.00 | 0.00 | 0.00 | 33 | 1029.4 |
| 20260905222113 | 83 | 220 | 0.0 | 0.0 | 0.00 | 0.00 | 0.00 | 32 | 1029.5 |
| 20260905221609 | 83 | 23 | 2.0 | 2.0 | 0.00 | 0.00 | 0.00 | 32 | 1029.7 |
| 20260905221106 | 82 | 229 | 1.0 | 1.0 | 0.00 | 0.00 | 0.00 | 32 | 1029.7 |
| 20260905220601 | 81 | 237 | 2.0 | 3.0 | 0.00 | 0.00 | 0.00 | 34 | 1029.7 |
| 20260905220057 | 80 | 223 | 3.0 | 3.0 | 0.00 | 0.00 | 0.00 | 34 | 1029.8 |
| 20260905215556 | 81 | 30 | 4.0 | 6.0 | 0.00 | 0.00 | 0.00 | 34 | 1029.8 |
| 20260905215052 | 82 | 218 | 3.0 | 3.0 | 0.00 | 0.00 | 0.00 | 34 | 1029.8 |
| 20260905214548 | 80 | 149 | 0.0 | 1.0 | 0.00 | 0.00 | 0.00 | 34 | 1029.9 |
| 20260905214043 | 81 | 216 | 0.0 | 0.0 | 0.00 | 0.00 | 0.00 | 34 | 1030.0 |
| 20260905213538 | 80 | 193 | 5.0 | 7.0 | 0.00 | 0.00 | 0.00 | 34 | 1029.9 |
| 20260905213034 | 80 | 323 | 5.0 | 7.0 | 0.00 | 0.00 | 0.00 | 34 | 1030.0 |
| 20260905212534 | 80 | 253 | 5.0 | 8.0 | 0.00 | 0.00 | 0.00 | 34 | 1030.3 |
| 20260905212028 | 79 | 48 | 3.0 | 5.0 | 0.00 | 0.00 | 0.00 | 35 | 1030.3 |
| 20260905211523 | 80 | 32 | 1.0 | 2.0 | 0.00 | 0.00 | 0.00 | 35 | 1030.2 |
| 20260905211019 | 79 | 228 | 1.0 | 1.0 | 0.00 | 0.00 | 0.00 | 35 | 1030.3 |
| 20260905210515 | 79 | 50 | 2.0 | 3.0 | 0.00 | 0.00 | 0.00 | 35 | 1030.3 |
| 20260905210015 | 77 | 76 | 1.0 | 1.0 | 0.00 | 0.00 | 0.00 | 36 | 1030.5 |
| 20260905205514 | 78 | 229 | 2.0 | 2.0 | 0.00 | 0.00 | 0.00 | 35 | 1030.4 |
| 20260905205013 | 79 | 25 | 5.0 | 6.0 | 0.00 | 0.00 | 0.00 | 35 | 1030.7 |
| 20260905204509 | 80 | 337 | 1.0 | 1.0 | 0.00 | 0.00 | 0.00 | 34 | 1030.4 |
| 20260905204008 | 81 | 210 | 0.0 | 1.0 | 0.00 | 0.00 | 0.00 | 34 | 1030.4 |
| 20260905203503 | 81 | 202 | 6.0 | 8.0 | 0.00 | 0.00 | 0.00 | 33 | 1030.7 |
| 20260905202958 | 81 | 43 | 5.0 | 7.0 | 0.00 | 0.00 | 0.00 | 33 | 1030.2 |
| 20260905202453 | 81 | 94 | 1.0 | 3.0 | 0.00 | 0.00 | 0.00 | 34 | 1030.8 |
| 20260905201944 | 79 | 160 | 3.0 | 3.0 | 0.00 | 0.00 | 0.00 | 34 | 1030.5 |
| 20260905201439 | 80 | 13 | 2.0 | 2.0 | 0.00 | 0.00 | 0.00 | 34 | 1030.5 |
| 20260905200938 | 81 | 259 | 3.0 | 7.0 | 0.00 | 0.00 | 0.00 | 33 | 1030.4 |
| 20260905200435 | 80 | 32 | 1.0 | 1.0 | 0.00 | 0.00 | 0.00 | 34 | 1030.5 |
| 20260905195933 | 78 | 3 | 4.0 | 5.0 | 0.00 | 0.00 | 0.00 | 35 | 1030.4 |
| 20260905195428 | 79 | 242 | 4.0 | 6.0 | 0.00 | 0.00 | 0.00 | 35 | 1030.7 |
| 20260905194924 | 79 | 176 | 4.0 | 7.0 | 0.00 | 0.00 | 0.00 | 36 | 1030.7 |
| 20260905194423 | 79 | 86 | 3.0 | 8.0 | 0.00 | 0.00 | 0.00 | 36 | 1030.8 |
| 20260905193923 | 80 | 36 | 6.0 | 6.0 | 0.00 | 0.00 | 0.00 | 35 | 1030.8 |
| 20260905193418 | 78 | 207 | 4.0 | 6.0 | 0.00 | 0.00 | 0.00 | 36 | 1030.5 |
| 20260905192913 | 79 | 153 | 4.0 | 6.0 | 0.00 | 0.00 | 0.00 | 36 | 1030.7 |
| 20260905192409 | 79 | 356 | 4.0 | 6.0 | 0.00 | 0.00 | 0.00 | 36 | 1030.7 |
| 20260905191908 | 79 | 34 | 8.0 | 9.0 | 0.00 | 0.00 | 0.00 | 35 | 1030.7 |
| 20260905191407 | 80 | 28 | 3.0 | 6.0 | 0.00 | 0.00 | 0.00 | 34 | 1030.8 |
| 20260905190902 | 80 | 292 | 3.0 | 5.0 | 0.00 | 0.00 | 0.00 | 35 | 1031.0 |
| 20260905190354 | 80 | 77 | 2.0 | 3.0 | 0.00 | 0.00 | 0.00 | 35 | 1030.7 |
| 20260905185853 | 79 | 120 | 5.0 | 6.0 | 0.00 | 0.00 | 0.00 | 35 | 1030.8 |
| 20260905185349 | 77 | 114 | 5.0 | 7.0 | 0.00 | 0.00 | 0.00 | 36 | 1030.9 |
| 20260905184848 | 77 | 157 | 3.0 | 3.0 | 0.00 | 0.00 | 0.00 | 37 | 1030.8 |
| 20260905184347 | 78 | 172 | 3.0 | 6.0 | 0.00 | 0.00 | 0.00 | 36 | 1031.0 |
| 20260905183845 | 79 | 171 | 3.0 | 3.0 | 0.00 | 0.00 | 0.00 | 35 | 1030.9 |
| 20260905183341 | 79 | 83 | 3.0 | 5.0 | 0.00 | 0.00 | 0.00 | 34 | 1030.8 |
| 20260905182836 | 78 | 306 | 5.0 | 10.0 | 0.00 | 0.00 | 0.00 | 35 | 1030.7 |
| 20260905182335 | 78 | 223 | 2.0 | 3.0 | 0.00 | 0.00 | 0.00 | 36 | 1030.9 |
| 20260905181831 | 77 | 295 | 6.0 | 8.0 | 0.00 | 0.00 | 0.00 | 35 | 1030.8 |
| 20260905181330 | 77 | 31 | 4.0 | 5.0 | 0.00 | 0.00 | 0.00 | 35 | 1030.8 |
| 20260905180829 | 77 | 39 | 2.0 | 2.0 | 0.00 | 0.00 | 0.00 | 35 | 1030.8 |
| 20260905180325 | 77 | 128 | 4.0 | 6.0 | 0.00 | 0.00 | 0.00 | 35 | 1031.0 |
| 20260905175819 | 78 | 5 | 3.0 | 6.0 | 0.00 | 0.00 | 0.00 | 35 | 1031.0 |
| 20260905175314 | 78 | 223 | 2.0 | 2.0 | 0.00 | 0.00 | 0.00 | 35 | 1031.0 |
| 20260905174809 | 78 | 133 | 3.0 | 5.0 | 0.00 | 0.00 | 0.00 | 35 | 1030.9 |
| 20260905174305 | 80 | 121 | 2.0 | 5.0 | 0.00 | 0.00 | 0.00 | 34 | 1031.3 |
| 20260905173801 | 82 | 148 | 3.0 | 3.0 | 0.00 | 0.00 | 0.00 | 33 | 1030.9 |
| 20260905173257 | 82 | 237 | 1.0 | 1.0 | 0.00 | 0.00 | 0.00 | 34 | 1031.0 |
| 20260905172756 | 82 | 143 | 5.0 | 6.0 | 0.00 | 0.00 | 0.00 | 33 | 1030.8 |
| 20260905172254 | 81 | 66 | 4.0 | 6.0 | 0.00 | 0.00 | 0.00 | 34 | 1030.9 |
| 20260905171751 | 81 | 114 | 2.0 | 2.0 | 0.00 | 0.00 | 0.00 | 33 | 1030.7 |
| 20260905171248 | 81 | 184 | 2.0 | 2.0 | 0.00 | 0.00 | 0.00 | 33 | 1031.0 |
| 20260905170743 | 79 | 144 | 1.0 | 2.0 | 0.00 | 0.00 | 0.00 | 35 | 1031.0 |
| 20260905170239 | 78 | 67 | 6.0 | 7.0 | 0.00 | 0.00 | 0.00 | 35 | 1030.9 |
| 20260905165738 | 76 | 322 | 0.0 | 1.0 | 0.00 | 0.00 | 0.00 | 36 | 1031.0 |
| 20260905165234 | 77 | 58 | 1.0 | 1.0 | 0.00 | 0.00 | 0.00 | 38 | 1031.0 |
| 20260905164733 | 77 | 97 | 2.0 | 2.0 | 0.00 | 0.00 | 0.00 | 36 | 1031.0 |
| 20260905164228 | 77 | 198 | 0.0 | 0.0 | 0.00 | 0.00 | 0.00 | 37 | 1030.9 |
| 20260905163725 | 76 | 224 | 3.0 | 5.0 | 0.00 | 0.00 | 0.00 | 37 | 1030.9 |
| 20260905163220 | 77 | 267 | 3.0 | 3.0 | 0.00 | 0.00 | 0.00 | 36 | 1030.9 |
| 20260905162717 | 76 | 89 | 1.0 | 1.0 | 0.00 | 0.00 | 0.00 | 36 | 1031.0 |
| 20260905162216 | 76 | 118 | 2.0 | 3.0 | 0.00 | 0.00 | 0.00 | 36 | 1030.8 |
| 20260905161711 | 75 | 272 | 2.0 | 2.0 | 0.00 | 0.00 | 0.00 | 37 | 1030.9 |
| 20260905161209 | 76 | 54 | 1.0 | 2.0 | 0.00 | 0.00 | 0.00 | 36 | 1030.9 |
| 20260905160708 | 75 | 276 | 3.0 | 3.0 | 0.00 | 0.00 | 0.00 | 37 | 1030.9 |
| 20260905160202 | 75 | 147 | 5.0 | 6.0 | 0.00 | 0.00 | 0.00 | 37 | 1030.8 |
| 20260905155701 | 74 | 89 | 2.0 | 2.0 | 0.00 | 0.00 | 0.00 | 38 | 1031.0 |
| 20260905155201 | 74 | 25 | 4.0 | 5.0 | 0.00 | 0.00 | 0.00 | 39 | 1031.0 |
| 20260905154650 | 74 | 17 | 4.0 | 5.0 | 0.00 | 0.00 | 0.00 | 38 | 1031.0 |
| 20260905154145 | 74 | 343 | 2.0 | 2.0 | 0.00 | 0.00 | 0.00 | 39 | 1031.2 |
| 20260905153641 | 73 | 1 | 6.0 | 7.0 | 0.00 | 0.00 | 0.00 | 39 | 1030.8 |
| 20260905153136 | 73 | 204 | 3.0 | 3.0 | 0.00 | 0.00 | 0.00 | 40 | 1030.8 |
| 20260905152631 | 73 | 348 | 1.0 | 2.0 | 0.00 | 0.00 | 0.00 | 41 | 1031.0 |
| 20260905152125 | 72 | 49 | 3.0 | 5.0 | 0.00 | 0.00 | 0.00 | 41 | 1030.8 |
| 20260905151620 | 71 | 24 | 2.0 | 2.0 | 0.00 | 0.00 | 0.00 | 42 | 1030.9 |
| 20260905151116 | 70 | 341 | 1.0 | 1.0 | 0.00 | 0.00 | 0.00 | 44 | 1030.9 |
| 20260905150606 | 69 | 56 | 3.0 | 3.0 | 0.00 | 0.00 | 0.00 | 46 | 1030.7 |
| 20260905145556 | 68 | 116 | 3.0 | 3.0 | 0.00 | 0.00 | 0.00 | 48 | 1030.9 |
| 20260905145055 | 67 | 23 | 1.0 | 1.0 | 0.00 | 0.00 | 0.00 | 51 | 1030.9 |
| 20260905144551 | 66 | 220 | 0.0 | 0.0 | 0.00 | 0.00 | 0.00 | 53 | 1030.8 |
| 20260905144049 | 64 | 218 | 0.0 | 0.0 | 0.00 | 0.00 | 0.00 | 54 | 1031.2 |
| 20260905143543 | 64 | 211 | 0.0 | 0.0 | 0.00 | 0.00 | 0.00 | 56 | 1031.0 |
| 20260905143038 | 62 | 189 | 1.0 | 1.0 | 0.00 | 0.00 | 0.00 | 58 | 1031.0 |
| 20260905142537 | 60 | 206 | 0.0 | 0.0 | 0.00 | 0.00 | 0.00 | 60 | 1031.4 |
| 20260905142032 | 59 | 223 | 0.0 | 0.0 | 0.00 | 0.00 | 0.00 | 61 | 1031.0 |
| 20260905141527 | 58 | 219 | 0.0 | 0.0 | 0.00 | 0.00 | 0.00 | 62 | 1031.0 |
| 20260905141024 | 57 | 214 | 0.0 | 0.0 | 0.00 | 0.00 | 0.00 | 64 | 1030.9 |
| 20260905140524 | 56 | 213 | 0.0 | 0.0 | 0.00 | 0.00 | 0.00 | 66 | 1031.3 |
| 20260905140023 | 56 | 197 | 1.0 | 1.0 | 0.00 | 0.00 | 0.00 | 65 | 1031.2 |
| 20260905135518 | 55 | 178 | 1.0 | 2.0 | 0.00 | 0.00 | 0.00 | 67 | 1031.0 |
| 20260905135013 | 56 | 215 | 0.0 | 0.0 | 0.00 | 0.00 | 0.00 | 65 | 1030.9 |
| 20260905134508 | 55 | 213 | 0.0 | 0.0 | 0.00 | 0.00 | 0.00 | 65 | 1030.8 |
| 20260905134007 | 55 | 195 | 0.0 | 1.0 | 0.00 | 0.00 | 0.00 | 66 | 1030.8 |
| 20260905133502 | 53 | 208 | 0.0 | 0.0 | 0.00 | 0.00 | 0.00 | 68 | 1030.7 |
| 20260905133001 | 53 | 226 | 0.0 | 0.0 | 0.00 | 0.00 | 0.00 | 68 | 1030.8 |
| 20260905132457 | 52 | 185 | 2.0 | 2.0 | 0.00 | 0.00 | 0.00 | 70 | 1030.7 |
| 20260905131951 | 51 | 219 | 0.0 | 0.0 | 0.00 | 0.00 | 0.00 | 71 | 1030.7 |
| 20260905131447 | 52 | 196 | 1.0 | 1.0 | 0.00 | 0.00 | 0.00 | 70 | 1030.9 |
| 20260905130942 | 51 | 201 | 0.0 | 0.0 | 0.00 | 0.00 | 0.00 | 71 | 1030.4 |
| 20260905130441 | 51 | 214 | 0.0 | 0.0 | 0.00 | 0.00 | 0.00 | 72 | 1030.8 |
| 20260905125941 | 51 | 208 | 0.0 | 0.0 | 0.00 | 0.00 | 0.00 | 71 | 1030.7 |
| 20260905125436 | 51 | 181 | 0.0 | 1.0 | 0.00 | 0.00 | 0.00 | 71 | 1030.7 |
| 20260905124932 | 51 | 228 | 1.0 | 1.0 | 0.00 | 0.00 | 0.00 | 72 | 1030.7 |
| 20260905124428 | 51 | 215 | 0.0 | 0.0 | 0.00 | 0.00 | 0.00 | 71 | 1030.4 |
| 20260905123928 | 51 | 217 | 0.0 | 0.0 | 0.00 | 0.00 | 0.00 | 71 | 1030.5 |
| 20260905123425 | 51 | 221 | 0.0 | 0.0 | 0.00 | 0.00 | 0.00 | 71 | 1030.4 |
| 20260905122920 | 51 | 193 | 0.0 | 1.0 | 0.00 | 0.00 | 0.00 | 71 | 1030.4 |
| 20260905122419 | 51 | 199 | 0.0 | 0.0 | 0.00 | 0.00 | 0.00 | 71 | 1030.5 |
| 20260905121915 | 52 | 220 | 0.0 | 0.0 | 0.00 | 0.00 | 0.00 | 69 | 1030.2 |
| 20260905121410 | 51 | 217 | 0.0 | 0.0 | 0.00 | 0.00 | 0.00 | 71 | 1030.0 |
| 20260905120909 | 51 | 170 | 1.0 | 2.0 | 0.00 | 0.00 | 0.00 | 71 | 1030.4 |